Torna al catalogo

STARLINK-31917

AttivoComunicazioniVLEO
NORAD 59669·PAYLOAD·🇺🇸 United States

Lanciato May 6, 2024 da Cape Canaveral Space Force Station

Loading…

Prossimi Passaggi (prossime 24 ore)

TLE

AggiornatoSource: CelesTrak SupGP

Epoca: Sep 15, 2026, 03:17 UTC

1 59669C 24084R   26258.13729167 -.00022051  00000+0 -79853-3 0  2586
2 59669  43.0009  51.9038 0001424 268.5033 193.9247 15.27596347    12

Traccia STARLINK-31917 in tempo reale con AllMySat

Download on the App Store